Regional Weather Roundup
Issued by NWS Wakefield, VA

Home | Current Version | Previous Version | Text Only | Print | Product List | Glossary Off
Versions: 1 2 3 4 5 6 7 8 9 10 11 12 13 14 15 16 17 18 19 20 21 22 23 24 25 26 27 28 29 30 31 32 33 34 35 36 37 38 39 40 41 42 43 44 45 46 47 48 49 50
000 ASUS41 KAKQ 210315 RWRAKQ REGIONAL WEATHER ROUNDUP NATIONAL WEATHER SERVICE WAKEFIELD VA 1100 PM EDT MON MAY 20 2019 Note: "fair" indicates few or no clouds below 12,000 feet with no significant weather and/or obstructions to visibility. * = Denotes station may not report precipitation (e.g., rain,snow,etc.), thunder or fog. VAZ042-051-052>054-056-210400- NORTHERN VIRGINIA CITY SKY/WX TMP DP RH WIND PRES REMARKS WASH NATIONAL FAIR 78 51 38 NW7 29.86R DULLES FAIR 75 51 43 NW14 29.89R FORT BELVOIR FAIR 77 52 41 NW10 29.86R QUANTICO FAIR 74 68 81 NW6 29.87R FREDERICKSBRG* FAIR 70 67 93 CALM 29.86R STAFFORD* FAIR 67 67 100 NW3 29.91R WARRENTON FAIR 70 50 48 NW7 29.88R CULPEPER* FAIR 73 45 35 CALM 29.90R MANASSAS* FAIR 73 53 49 NW12 29.88R LEESBURG* FAIR 73 55 53 NW15G21 29.91R WINCHESTER FAIR 68 52 56 NW12 29.95R FRONT ROYAL* FAIR 72 52 49 NW10 29.91R LURAY* FAIR 70 50 49 CALM 29.93R $$ VAZ048-049-060>072-079>083-210400- CENTRAL AND SOUTH CENTRAL VIRGINIA CITY SKY/WX TMP DP RH WIND PRES REMARKS RICHMOND MOCLDY 74 65 73 SW5 29.87S CHESTERFIELD* FAIR 72 65 78 SW6 29.89R PETERSBURG* FAIR 68 64 88 SW3 29.89S HANOVER FAIR 69 64 84 SW3 29.89R TAPPAHANNOCK* FAIR 70 68 93 SW5 29.87S QUINTON* FAIR 70 70 100 CALM 29.87S CHARLOTTSVILLE FAIR 77 46 33 CALM 29.91R GORDONSVILLE* FAIR 71 53 52 CALM 29.90R ORANGE* FAIR 75 46 35 W14 29.89R LOUISA* FAIR 63 63 98 SW3 29.93S FOG BUMPASS* FAIR 65 63 95 CALM 29.88R FARMVILLE* FAIR 66 65 96 CALM 29.89S CREWE* FAIR 67 67 100 CALM 29.90R FORT PICKETT* FAIR 69 69 100 SW6 29.91R CHASE CITY* FAIR 69 64 85 S3 29.92R CLARKSVILLE* CLOUDY 68 68 100 CALM 29.92R SOUTH HILL* FAIR 69 69 100 CALM 29.97R LAWRENCEVILLE* MOCLDY 69 68 96 CALM 29.91R EMPORIA* CLOUDY 69 69 98 SE3 29.92R $$ VAZ088>098-210400- SOUTHEAST VIRGINIA CITY SKY/WX TMP DP RH WIND PRES REMARKS NORFOLK LGT RAIN 73 68 84 W3 29.89R VIRGINIA BEACH CLOUDY 78 69 73 SW7 29.88R NORFOLK NAVAL MOCLDY 71 69 93 S6 29.89F WEST POINT* FAIR 71 70 98 CALM 29.88S SALUDA* FAIR 75 69 81 SW6 29.86R NEWPORT NEWS CLOUDY 76 65 68 W6 29.87S LANGLEY AFB MOCLDY 73 69 89 W5 29.86F FORT EUSTIS MOCLDY 75 66 74 S3 29.86R WILLIAMSBURG* FAIR 73 72 94 CALM 29.89R HR EXEC AP* LGT RAIN 71 68 90 SW7 29.91R FRANKLIN* CLOUDY 70 69 98 CALM 29.90S US460-WAKEFLD CLOUDY 72 66 81 SW3 29.89R $$ VAZ020-022-025-037-045-210400- WEST CENTRAL AND SOUTHWEST VIRGINIA CITY SKY/WX TMP DP RH WIND PRES REMARKS STAUNTON* FAIR 67 47 49 CALM 29.97R WAYNESBORO* FAIR 69 45 42 W5 29.96S HOT SPRINGS VA FAIR 61 54 76 NW12 30.06S LYNCHBURG FAIR 71 50 47 NW3 29.94R DANVILLE FAIR 71 65 81 SW5 29.93R SOUTH BOSTON* FAIR 67 64 89 CALM 29.93R MARTINSVILLE FAIR 63 63 100 CALM 29.99R ROANOKE FAIR 70 48 45 NW9 29.98R BLACKSBURG FAIR 64 49 58 CALM 30.05S DUBLIN* FAIR 65 51 60 NW7 30.03F MARION* FAIR 66 52 60 CALM 30.08S HILLSVILLE* FAIR 67 46 47 NW8 30.03F RICHLANDS* FAIR 63 49 61 NW5 30.07S WISE* FAIR 64 52 63 CALM 30.09S ABINGDON* FAIR 60 52 73 CALM 30.05S $$ MDZ021>025-VAZ099-100-210400- SOUTHERN MARYLAND AND THE DELMARVA PENINSULA CITY SKY/WX TMP DP RH WIND PRES REMARKS PATUXENT RIVER FAIR 74 66 76 W8 29.85R BAY BRIDGE APT FAIR 75 57 53 W9 29.84R LEONARDTOWN FAIR 70 64 83 CALM 29.88R DOVER MOCLDY 74 66 75 SW6 29.82R GEORGETOWN CLOUDY 77 66 68 SW5 29.84R EASTON FAIR 73 68 83 CALM 29.88R CAMBRIDGE CLOUDY 72 70 94 CALM 29.84R SALISBURY MOCLDY 73 70 90 NW6 29.85R TANGIER MOCLDY 73 70 88 SW10 29.84S OCEAN CITY MOCLDY 73 70 90 W3 29.84R WALLOPS ISLAND MOCLDY 76 66 71 SW7 29.84S ACCOMACK* FAIR 71 66 84 S5 29.85S $$ NCZ012>017-030>032-210400- NORTH CENTRAL AND EASTERN NORTH CAROLINA CITY SKY/WX TMP DP RH WIND PRES REMARKS ROANOKE RAPIDS FAIR 68 68 100 CALM 29.92R RALEIGH MOCLDY 75 64 68 SW8 29.94R ELIZABETH CITY FAIR 77 67 71 S14 29.91R AHOSKIE* MOCLDY 71 70 97 S7 29.92F EDENTON* MOCLDY 78 69 73 S13G18 29.93S CURRITUCK* FAIR 76 69 78 MISG 29.90S KILL DEVIL HLS FAIR 74 66 77 MISG 29.92R MANTEO FAIR 74 68 80 SW16 29.94R CAPE HATTERAS FAIR 75 70 84 SW14G22 29.97R TARBORO* FAIR 78 69 73 S5 29.92S GOLDSBORO LGT RAIN 69 67 92 S10 29.94F WASHINGTON FAIR 74 67 78 S7 29.95S GREENVILLE FAIR 77 68 73 S14 29.95S NEW BERN FAIR 73 69 87 SW12 29.97R WILMINGTON FAIR 75 69 81 S9 29.98R $$ VAZ048-210400- ELSEWHERE CITY SKY/WX TMP DP RH WIND PRES REMARKS HARRISBURG PA FAIR 71 52 50 NW13 29.87R BALTIMORE FAIR 74 52 46 NW12 29.84R ANNAPOLIS FAIR 79 52 38 W6 29.84R ANDREWS AFB FAIR 77 51 40 NW7 29.86R PHILADELPHIA FAIR 78 50 37 NW8 29.80R HENDERSON NC FAIR 67 64 91 SW5 29.94R GREENSBORO FAIR 70 64 81 SW6 29.95S ROCKY MOUNT MOCLDY 75 66 73 S5 29.93R $$ VAZ100-210400- MARINE STATION/POSITION TIME TEMP WIND PRES WAVE SWELL AIR SEA DIR/SP/G HT/PER HT/PER (UTC) (F) (DEG/KT/KT) (MB) (FT/S) (FT/S) BRANDYWINE LGT 0242 1010.4R CAPE MAY NJ 0248 70 65 210/ 5/ 7 1009.7R LEWES DE 0248 74 260/ 4/ 5 1010.2R 15NM E FENWICK I 0250 65 61 210/ 14/ 16 1009.8S 4/ 5 2/14 OCEAN-CITY-INLET 0236 66 58 250/ 2/ 3 1010.8R WACHAPREAGUE VA 0248 74 77 200/ 10/ 12 1010.4R THOMAS POINT MD 0300 78 69 280/ 11/ 12 1011.5R GOOSES REEF MD 0242 72 300/ 8/ 8 1011.0R COVE POINT MD 0248 75 280/ 9/ 12 1011.1R SOLOMONS ISLAND 0248 74 67 280/ 2/ 4 1010.3R BISHOPS HEAD MD 0236 74 78 280/ 9/ 11 1010.9R PINEY POINT MD 0242 310/ 7/ 8 N/A POTOMAC MD 0248 73 71 310/ 8/ 10 1010.2R CAMBRIDGE MD 0236 76 72 1010.3R LEWISETTA VA 0242 75 74 260/ 11/ 12 1010.6R RAPPAHANNOCK LGT 0242 200/ 10/ 11 1011.5R STINGRAY PT 0248 73 72 260/ 10/ 10 1009.6R YORK RVR RNG VA 0248 76 230/ 12/ 13 1011.5R YORKTOWN VA 0248 77 73 220/ 9/ 12 1010.8S JAMESTOWN VA 0248 69 86 1008.3R DOMINION TERM VA 0242 75 160/ 7/ 8 1011.4F KIPTOPEKE VA 0242 73 180/ 10/ 11 N/A CAPE HENRY VA 0242 76 260/ 12/ 18 1012.4R WILLOUBY STN VA 0242 71 210/ 13/ 15 1010.7R S CRANEY ISL VA 0242 73 360/ 2/ 7 1011.4S CAPE HENRY BUOY 0300 70 N/A 3/ 5 1ST LANDING BUOY 0240 73 230/ 16/ 19 1012.1R 64NM E OF VA BCH 0250 66 62 200/ 16/ 19 1012.7F 4/ 5 DUCK PIER NC 0242 76 61 200/ 15/ 22 1012.5R 44100 DUCK FRF 0300 69 N/A 2/ 4 44056 DUCK FRF 0300 64 N/A 2/14 OREGON INLET NC 0242 76 79 200/ 21/ 27 1013.7S HATTERAS NC 0242 74 76 210/ 13/ 17 1014.7R CAPE LOOKOUT NC 0200 75 210/ 10/ 12 1015.2R $$

USA.gov is the U.S. government's official web portal to all federal, state and local government web resources and services.